Regional Weather Roundup
Issued by NWS

Home | Current Version | Previous Version | Graphics & Text | Print | Product List | Glossary On
Versions: 1 2 3 4 5 6 7 8 9 10 11 12 13 14 15 16 17 18 19 20 21 22 23 24 25 26 27 28 29 30 31 32 33 34 35 36 37 38 39 40 41 42 43 44 45 46 47 48 49 50
000
ASUS43 KFSD 260810
RWRSD

WEATHER ROUNDUP FOR SOUTH DAKOTA
NATIONAL WEATHER SERVICE SIOUX FALLS SD
300 AM CDT THU APR 26 2018

NOTE: "FAIR" INDICATES FEW OR NO CLOUDS BELOW 12,000 FEET WITH NO
SIGNIFICANT WEATHER AND/OR OBSTRUCTIONS TO VISIBILITY.


SDZ001>005-009-010-012>017-260900-
NORTHWEST AND NORTH CENTRAL SOUTH DAKOTA

CITY           SKY/WX    TMP DP  RH WIND       PRES   REMARKS
BUFFALO          N/A     44  31  60 NW15      30.04R
FAITH            N/A     47  36  65 N21       29.99R
MOBRIDGE       MOCLDY    50  36  58 N20G31    29.89R
$$

SDZ012>016-024>037-041>051-057-063-072>074-260900-
SOUTHWEST AND SOUTH CENTRAL SOUTH DAKOTA

CITY           SKY/WX    TMP DP  RH WIND       PRES   REMARKS
RAPID CTY ARPT PTCLDY    50  31  48 N28G37    30.04R
PIERRE         CLOUDY    52  33  48 NW21      29.86R
CUSTER         MOCLDY    43  25  49 N12G29    30.05R
ELLSWORTH AFB  PTCLDY    50  32  49 N28G39    30.03R
PHILIP         CLOUDY    54  34  46 N20G28    29.93R
PINE RIDGE     CLOUDY    54  30  40 NW9       29.98R
SPEARFISH      CLOUDY    46  32  57 NW14G22   30.13R
WINNER         FAIR      50  32  50 SW14      29.86F
$$

SDZ004>011-016>023-039-040-260900-
NORTHEAST SOUTH DAKOTA

CITY           SKY/WX    TMP DP  RH WIND       PRES   REMARKS
ABERDEEN       MOCLDY    37  34  89 S8        29.82S
WATERTOWN      CLOUDY    40  33  76 S8        29.83F
BROOKINGS      CLOUDY    44  33  65 S13       29.86F
SISSETON         N/A     52  32  46 SW26G36   29.75F
$$

SDZ017-020-022-023-036>040-048>070-260900-
SOUTHEAST SOUTH DAKOTA

CITY           SKY/WX    TMP DP  RH WIND       PRES   REMARKS
SIOUX FALLS    CLOUDY    48  31  51 SW9       29.90F
HURON          CLOUDY    46  34  62 S14       29.83F
CHAMBERLAIN    CLOUDY    52  35  52 SW14      29.85F
MITCHELL       CLOUDY    47  34  60 S9        29.87F
YANKTON        CLOUDY    44  32  62 S7        29.91F
$$

ABBREVIATIONS USED IN REMARKS
   TC - TEMPERATURE IN CELSIUS
  WCI - WIND CHILL INDEX
   HX - HEAT INDEX
  VSB - VISIBILITY





USA.gov is the U.S. government's official web portal to all federal, state and local government web resources and services.